KC5EZZ-6 Weather Reports


Display with metric or nautical units.
time (UTC)temp
F
wind
direction
speed
MPH
gust
MPH
rain 1hr
in
rain 24hr
in
rain mn
in
humidity
%
barometer
mb
20260902165637 101 69 0.0 0.0 0.00 0.00 0.00
20260902165137 102 69 0.0 0.0 0.00 0.00 0.00
20260902160616 100 69 0.0 0.0 0.00 0.00 0.00
20260902160111 99 69 0.0 0.0 0.00 0.00 0.00
20260902155610 99 69 0.0 0.0 0.00 0.00 0.00
20260902155110 99 69 0.0 0.0 0.00 0.00 0.00
20260902154104 98 69 0.0 0.0 0.00 0.00 0.00
20260902153603 97 69 0.0 0.0 0.00 0.00 0.00
20260902135541 89 69 0.0 0.0 0.00 0.00 0.00
20260902135018 89 69 0.0 0.0 0.00 0.00 0.00
20260902112415 73 69 0.0 0.0 0.00 0.00 0.00
20260902101152 73 69 0.0 0.0 0.00 0.00 0.00
20260902100844 73 69 0.0 0.0 0.00 0.00 0.00
20260902094926 74 69 0.0 0.0 0.00 0.00 0.00
20260902094837 74 69 0.0 0.0 0.00 0.00 0.00
20260902092326 74 69 0.0 0.0 0.00 0.00 0.00
20260902055152 80 69 0.0 0.0 0.00 0.00 0.00
20260902033555 83 69 0.0 0.0 0.00 0.00 0.00
20260902032548 84 69 0.0 0.0 0.00 0.00 0.00
20260902032047 84 69 0.0 0.0 0.00 0.00 0.00
20260902031546 84 69 0.0 0.0 0.00 0.00 0.00
20260902031041 84 69 0.0 0.0 0.00 0.00 0.00
20260902030541 85 69 0.0 0.0 0.00 0.00 0.00
20260902025536 85 69 0.0 0.0 0.00 0.00 0.00
20260902025027 85 69 0.0 0.0 0.00 0.00 0.00
20260902024528 86 69 0.0 0.0 0.00 0.00 0.00
20260902024021 86 69 0.0 0.0 0.00 0.00 0.00
20260902023522 86 69 0.0 0.0 0.00 0.00 0.00
20260902023020 86 69 0.0 0.0 0.00 0.00 0.00
20260902021006 86 69 0.0 0.0 0.00 0.00 0.00
20260902013452 88 69 0.0 0.0 0.00 0.00 0.00
20260902012951 88 69 0.0 0.0 0.00 0.00 0.00
20260902012444 89 69 0.0 0.0 0.00 0.00 0.00
20260902011943 89 69 0.0 0.0 0.00 0.00 0.00
20260902011443 89 69 0.0 0.0 0.00 0.00 0.00
20260902010935 89 69 0.0 0.0 0.00 0.00 0.00
20260902010433 90 69 0.0 0.0 0.00 0.00 0.00
20260902005426 91 69 0.0 0.0 0.00 0.00 0.00
20260902004925 91 69 0.0 0.0 0.00 0.00 0.00
20260902003919 92 69 0.0 0.0 0.00 0.00 0.00
20260902003417 93 69 0.0 0.0 0.00 0.00 0.00
20260902002916 93 69 0.0 0.0 0.00 0.00 0.00
20260902002411 94 69 0.0 0.0 0.00 0.00 0.00
20260901231337 99 69 0.0 0.0 0.00 0.00 0.00
20260901230331 99 69 0.0 0.0 0.00 0.00 0.00
20260901225830 99 69 0.0 0.0 0.00 0.00 0.00
20260901222816 103 96 0.0 0.0 0.00 0.00 0.00
20260901222307 102 96 0.0 0.0 0.00 0.00 0.00
20260901221809 101 96 0.0 0.0 0.00 0.00 0.00
20260901221304 101 96 0.0 0.0 0.00 0.00 0.00
20260901220757 102 75 0.0 0.0 0.00 0.00 0.00
20260901220254 105 75 0.0 0.0 0.00 0.00 0.00
20260901215754 105 75 0.0 0.0 0.00 0.00 0.00
20260901215248 102 75 0.0 0.0 0.00 0.00 0.00
20260901214747 104 75 0.0 0.0 0.00 0.00 0.00
20260901214246 102 75 0.0 0.0 0.00 0.00 0.00
20260901213740 100 75 0.0 0.0 0.00 0.00 0.00
20260901211731 103 75 0.0 0.0 0.00 0.00 0.00
20260901210224 101 75 0.0 0.0 0.00 0.00 0.00
20260901205723 101 75 0.0 0.0 0.00 0.00 0.00
20260901204717 100 75 0.0 0.0 0.00 0.00 0.00
20260901204216 104 75 0.0 0.0 0.00 0.00 0.00
20260901203210 104 75 0.0 0.0 0.00 0.00 0.00
20260901202709 103 75 0.0 0.0 0.00 0.00 0.00
20260901202201 104 75 0.0 3.0 0.00 0.00 0.00
20260901201700 100 210 0.0 0.0 0.00 0.00 0.00
20260901201159 100 210 0.0 0.0 0.00 0.00 0.00
20260901200153 102 210 0.0 0.0 0.00 0.00 0.00
20260901194646 102 210 0.0 0.0 0.00 0.00 0.00
20260901193639 100 210 0.0 0.0 0.00 0.00 0.00
20260901193138 101 210 0.0 0.0 0.00 0.00 0.00
20260901192132 102 174 0.0 0.0 0.00 0.00 0.00
20260901190624 106 174 0.0 0.0 0.00 0.00 0.00
20260901190122 103 72 0.0 0.0 0.00 0.00 0.00
20260901185621 102 72 0.0 0.0 0.00 0.00 0.00
20260901185114 102 72 0.0 0.0 0.00 0.00 0.00
20260901184612 101 72 0.0 0.0 0.00 0.00 0.00
20260901184111 102 72 0.0 0.0 0.00 0.00 0.00
20260901182100 103 72 0.0 0.0 0.00 0.00 0.00